Location: ????????
(37.6846°N, 24.0673°E)
Time: 14:24:42
(UTC+00:00)

Cosmos 1980 Rocket - Pass Details

Date: 14 July 2020
Orbit: 828 x 851 km, 71.0° (Epoch: 04 August)

Event Time Altitude Azimuth Distance (km) Brightness Sun altitude
Rises 01:44:06 0° 333° (NNW) 3,423 5.6 -15.1°
Reaches altitude 10° 01:46:35 10° 329° (NNW) 2,482 4.8 -14.8°
Maximum altitude 01:52:09 57° 253° (WSW) 997 2.3 -14.0°
Drops below altitude 10° 01:57:39 10° 176° (S) 2,456 4.3 -13.2°
Sets 02:00:07 0° 172° (S) 3,383 5.0 -12.8°
